RH
18 17 16 15 15 13 13 12 10 10 9 8 8 7 7 7 6 6 6 5 5 5 5 6 6 5 5 5 5 5 5 5 5 5 5 5 5 5 5 4 5 4 3 3 3 3 3 3 4 3 3 4 5 5 6 7 9 12 15 17 16 16 15
16 15 14 13 12 10 10 9 8 7 7 6 6 5 5 5 4 5 5 4 4 5 5 5 5 5 5 5 6 6 5 5 5 5 5 5 5 6 5 5 6 6 4 3 3 3 3 4 5 4 4 4 5 6 7 6 8 12 18 23 25 25 22
13 12 11 10 9 8 7 7 6 6 5 5 5 5 5 4 4 4 4 4 4 4 5 5 4 5 5 5 6 6 6 6 6 6 6 5 6 6 6 6 6 7 7 4 4 4 3 4 6 6 5 6 6 7 7 7 6 10 19 28 32 34 32
11 10 9 8 7 7 6 6 6 5 6 6 5 6 5 5 6 5 5 5 5 5 5 5 5 5 5 6 7 6 7 7 6 7 7 6 7 7 7 7 6 8 8 6 5 5 4 4 6 7 6 7 8 6 7 8 7 8 16 29 39 42 42
9 8 7 7 7 6 6 6 6 6 6 7 7 7 7 7 7 7 7 6 6 6 7 6 6 6 6 7 7 6 7 7 7 8 8 8 8 7 7 8 8 7 8 8 7 5 5 5 7 9 9 9 9 8 7 7 7 8 13 28 43 48 49
9 8 8 7 7 7 7 7 8 8 8 8 9 9 9 9 9 9 9 8 8 8 8 8 7 7 7 7 7 8 8 8 9 9 9 9 9 8 9 9 9 8 7 8 8 6 6 5 7 11 12 11 11 9 7 7 9 12 16 30 48 55 58
10 10 10 9 9 9 10 10 9 10 11 11 11 11 11 11 11 11 10 10 10 9 9 9 9 8 9 8 8 9 8 9 9 9 10 10 9 10 10 9 9 9 9 9 8 7 6 5 8 14 15 15 15 13 9 7 9 15 23 39 59 67 69
11 11 12 12 12 11 12 12 12 13 14 13 13 14 13 13 13 13 12 11 11 11 10 10 10 10 9 9 10 9 9 9 9 10 10 10 10 12 13 15 13 9 9 10 9 8 7 6 8 13 17 21 23 17 8 7 17 27 35 51 71 78 79
14 14 14 13 14 14 14 15 15 16 17 16 16 16 16 15 14 13 12 11 10 10 10 10 9 10 9 9 10 9 10 10 9 10 10 9 11 10 15 28 27 15 11 11 12 12 9 8 9 10 17 26 26 16 9 16 34 45 50 66 83 87 86
17 17 17 16 16 16 17 17 18 19 20 20 19 18 18 17 16 16 15 14 13 12 11 11 10 10 9 10 11 10 10 10 9 10 9 10 11 9 22 45 44 25 16 19 25 24 14 9 9 8 12 21 23 17 12 24 47 62 70 84 94 93 91
19 19 19 19 19 18 19 20 21 22 22 21 21 24 27 26 24 23 23 22 22 20 19 19 18 17 17 16 16 15 14 12 11 11 10 11 11 9 26 56 61 44 34 38 45 42 29 16 8 7 10 13 20 22 14 27 63 84 91 96 97 95 94
21 21 21 22 22 22 22 22 23 25 25 27 31 35 41 43 41 39 37 36 38 36 36 36 35 35 36 34 31 30 27 22 16 14 12 12 12 9 20 52 77 78 72 70 68 58 41 21 6 9 11 7 17 23 15 36 80 99 97 99 98 95 95
22 22 23 25 26 25 25 24 26 30 34 38 42 45 53 61 63 61 58 57 59 60 62 63 61 60 59 58 58 55 50 41 31 26 22 18 18 16 19 41 73 92 96 94 91 81 59 31 16 14 9 7 20 24 19 50 92 101 97 100 98 95 97
24 24 26 29 29 28 26 26 31 40 45 49 52 59 70 78 80 76 71 69 71 75 79 82 84 84 78 76 79 77 73 67 58 51 46 39 33 25 21 31 55 83 99 101 102 98 76 51 42 32 16 11 17 19 31 72 102 101 98 101 98 99 102
27 28 29 31 33 32 29 32 42 50 53 58 67 76 86 91 93 89 80 74 74 81 86 88 90 93 91 89 88 85 87 90 87 81 77 72 62 46 35 31 38 60 82 90 99 103 87 75 77 69 51 37 29 35 64 96 105 100 100 102 100 101 103
34 35 35 35 38 41 39 42 53 59 63 72 81 88 94 97 98 95 86 79 80 86 92 93 93 93 93 94 92 88 92 99 101 99 98 95 90 80 66 48 38 51 70 79 90 93 83 85 96 94 88 82 73 78 95 103 101 100 101 100 98 98 99
40 41 42 41 45 53 53 52 60 69 75 83 89 94 99 101 99 95 91 87 85 87 91 96 97 96 93 94 93 92 97 101 101 103 103 101 100 100 92 73 64 76 87 87 88 83 74 85 99 98 98 101 98 99 103 100 98 98 96 96 96 94 96
47 45 48 53 57 61 63 63 69 78 84 88 93 99 102 101 99 99 96 90 85 85 90 96 98 97 94 93 92 92 98 101 101 102 103 101 100 102 100 93 90 96 97 91 90 89 85 93 101 99 99 100 99 100 101 99 95 93 96 98 95 95 99
54 50 54 62 64 67 73 75 76 82 90 95 99 101 101 100 99 100 98 93 88 89 94 97 96 95 94 94 94 95 98 100 101 102 101 100 100 100 100 100 101 102 99 94 94 98 100 101 100 99 101 101 100 100 100 99 99 98 100 99 97 100 103
61 59 60 64 67 72 79 82 83 89 96 100 101 100 100 101 100 100 100 97 92 93 96 96 93 91 89 90 94 98 100 99 100 101 100 101 101 100 99 100 100 101 101 100 100 101 102 102 100 100 101 100 100 101 99 99 102 102 101 101 101 103 103
67 67 64 64 69 76 81 87 94 98 100 100 100 100 100 100 100 100 101 98 95 97 98 96 93 91 86 86 93 98 100 100 100 100 101 102 100 97 97 100 101 100 100 100 101 100 100 100 100 100 101 101 100 100 99 97 99 102 102 102 102 102 101
74 72 65 63 71 78 83 92 101 102 100 100 100 100 100 100 100 101 101 100 97 96 95 95 94 91 89 91 96 100 100 100 99 100 103 103 99 96 98 101 100 100 100 100 100 100 99 100 100 100 101 100 97 97 99 99 100 102 102 100 100 100 100
78 72 64 64 71 76 83 96 102 99 99 101 100 99 100 100 100 101 100 100 99 96 95 97 95 94 96 99 101 101 100 99 99 101 101 99 98 99 100 101 100 100 100 100 100 100 100 99 100 101 100 97 94 96 101 103 102 101 101 100 100 100 100
77 69 65 67 71 72 79 91 93 87 92 101 101 98 100 100 100 100 100 100 100 99 99 99 98 99 101 101 100 100 100 100 100 100 98 96 99 102 101 100 100 100 100 100 100 100 100 100 100 100 98 96 97 99 102 102 101 101 100 100 100 100 100
73 66 66 71 73 70 71 80 82 80 89 101 97 93 99 101 99 100 100 99 100 100 97 96 99 102 101 99 99 99 99 100 100 100 99 99 101 102 100 100 101 99 99 100 100 100 100 100 100 100 99 99 100 102 102 101 101 101 100 100 101 100 100
71 67 68 70 73 71 66 70 79 83 91 95 88 87 97 102 100 100 100 99 101 101 94 91 96 101 100 99 101 100 99 101 100 99 100 100 100 100 100 101 100 100 100 100 100 100 100 99 100 101 101 100 100 101 102 101 101 101 100 100 100 99 99
72 68 68 68 72 71 64 68 82 91 93 93 91 91 96 100 101 101 99 99 101 100 93 92 96 99 99 100 101 100 100 100 100 99 100 100 100 100 100 100 100 101 102 100 99 100 100 100 100 101 100 100 100 102 102 100 100 100 100 100 100 99 100
77 73 70 68 73 74 64 65 84 97 97 97 99 99 98 100 102 100 98 99 101 100 97 97 99 99 99 100 100 100 99 99 100 100 100 99 100 100 100 99 99 100 102 102 100 100 100 100 101 101 100 100 101 101 101 99 100 101 100 100 102 101 101
91 87 81 75 79 83 73 67 81 98 101 99 100 100 100 101 98 94 94 97 100 100 100 100 100 100 100 100 100 97 95 94 97 100 101 100 101 100 98 94 92 94 99 101 101 100 100 100 100 100 100 100 101 101 101 100 101 101 100 100 101 101 101
99 98 95 89 89 94 91 85 90 100 101 99 100 100 100 101 99 95 96 99 100 100 99 99 100 100 99 100 101 99 94 91 91 94 96 95 95 95 94 93 91 92 96 100 101 100 100 100 100 100 100 100 100 100 100 100 101 100 100 100 100 100 101
100 100 101 98 95 96 97 96 99 102 101 99 100 100 99 100 100 100 100 100 100 100 99 98 99 100 99 99 100 100 100 98 95 94 91 89 88 90 93 96 97 97 99 102 101 99 100 100 100 100 100 100 100 101 101 101 101 100 100 100 100 100 101
100 100 101 101 99 98 96 94 94 97 100 101 101 100 99 99 99 100 100 100 100 101 99 97 98 99 99 99 98 98 100 100 100 100 98 95 94 95 97 99 100 100 102 102 100 99 100 100 100 100 100 100 100 101 101 101 101 100 100 100 100 100 100
102 101 100 100 102 102 100 99 97 97 100 103 102 101 99 99 99 101 101 99 100 101 100 99 99 100 100 100 99 99 100 100 100 100 100 100 100 100 101 102 102 102 102 101 100 100 100 100 100 100 100 100 100 100 101 101 101 100 100 100 100 100 100
101 101 100 100 102 103 103 103 104 103 102 102 101 100 101 100 100 101 101 100 99 100 100 100 100 101 101 100 99 100 100 100 100 100 99 100 101 100 100 101 100 101 101 100 100 100 100 100 100 100 100 100 100 100 100 101 101 100 100 100 100 100 100
94 100 103 101 99 100 100 100 100 102 101 99 98 98 99 101 102 100 99 100 100 100 100 100 100 100 100 100 100 100 100 99 100 100 100 100 100 100 100 100 100 100 100 100 100 100 100 100 100 100 100 100 100 100 100 100 100 100 100 100 100 100 100
89 95 103 105 101 100 100 99 99 98 95 96 98 94 89 91 99 101 99 99 100 99 99 100 100 100 100 100 99 100 100 100 100 100 100 100 100 100 100 101 100 100 100 100 100 100 100 100 100 100 100 100 99 100 100 100 100 100 100 100 100 100 100
Wind_Speed
59 60 60 61 61 62 62 62 63 63 64 64 65 65 65 66 66 66 66 66 65 64 65 65 66 67 66 66 66 67 67 67 67 66 66 66 66 66 66 64 65 69 70 69 66 63 62 63 64 65 63 59 57 58 59 59 60 61 63 64 64 64 64
61 61 62 62 63 63 64 64 64 65 65 66 66 66 66 66 67 67 67 67 66 66 65 65 66 67 66 66 66 67 67 68 68 68 67 67 67 67 66 64 64 66 68 68 66 63 61 61 63 65 64 62 58 57 58 60 60 61 63 64 64 64 64
62 63 63 64 64 64 64 65 65 65 65 65 65 66 66 66 66 66 67 67 67 66 66 67 67 66 66 66 66 67 67 68 68 69 69 69 68 67 66 65 63 64 66 66 64 62 60 60 62 64 64 63 59 57 57 59 61 61 63 65 66 65 65
63 64 64 64 64 64 64 64 64 64 64 64 64 64 65 65 65 66 66 66 67 66 66 67 67 67 65 65 67 67 67 67 68 69 70 70 69 67 66 65 63 63 64 65 63 60 59 59 62 63 63 62 61 59 58 58 60 62 63 65 66 66 65
64 64 64 64 64 63 63 63 63 64 63 63 63 64 64 64 65 65 65 66 66 66 66 67 67 67 66 65 67 67 67 67 68 68 69 70 70 69 67 65 64 63 63 64 63 60 58 58 60 62 62 62 61 60 59 58 59 61 63 64 65 66 65
63 63 63 63 62 62 62 62 63 63 64 64 64 64 65 65 65 65 65 65 66 66 66 66 67 66 65 65 66 66 66 67 67 67 68 69 70 70 68 66 64 63 62 63 63 60 58 58 59 60 61 62 61 60 59 58 58 60 62 64 65 65 64
61 61 61 61 61 61 61 61 62 62 63 63 63 64 65 65 65 65 65 66 66 66 66 67 66 66 65 65 65 65 65 66 66 66 66 67 68 69 68 67 65 63 62 62 62 61 60 59 58 57 59 61 60 59 59 58 58 59 62 63 63 62 62
60 60 59 59 59 60 60 60 61 61 61 62 62 63 64 64 64 65 66 66 66 66 67 67 66 66 65 64 65 65 64 65 65 65 66 66 65 66 67 67 65 64 63 63 63 62 61 60 57 56 58 59 59 60 60 59 58 58 59 60 60 59 59
58 58 58 58 58 58 58 59 59 59 60 61 61 62 63 63 64 66 67 68 68 67 67 67 66 65 64 64 64 64 64 64 64 64 66 65 64 64 64 64 63 63 63 64 63 62 62 61 57 55 57 59 59 60 59 57 56 56 57 57 57 56 56
56 57 57 57 57 57 57 57 57 57 57 58 59 60 62 63 65 66 67 68 69 69 68 67 66 65 64 63 63 62 63 63 63 63 65 64 64 63 61 59 60 62 62 63 63 62 63 61 56 54 56 59 59 57 56 56 56 55 55 54 54 54 54
55 55 55 55 56 56 56 55 54 54 55 55 56 58 60 62 63 64 66 66 67 68 68 67 66 65 63 62 61 60 61 61 61 62 62 63 63 62 58 54 56 59 59 60 61 62 62 60 55 53 55 58 57 55 56 56 55 53 53 52 52 52 52
54 54 54 54 54 54 54 53 52 53 54 54 55 56 56 58 59 61 62 62 63 64 64 64 64 62 60 59 57 56 56 57 58 59 59 60 60 61 59 53 51 51 52 54 56 56 56 56 53 52 55 57 56 55 55 55 53 52 51 49 48 49 50
53 53 53 52 52 52 52 51 51 52 52 53 53 53 52 51 52 54 55 55 56 56 57 57 58 57 56 54 52 50 50 52 53 53 55 56 57 58 58 55 51 47 46 46 47 47 48 49 50 52 54 54 54 53 52 52 51 50 48 46 46 46 47
52 52 51 50 50 51 50 50 50 50 50 50 49 48 45 45 46 48 49 49 49 50 51 52 52 52 52 50 47 45 44 45 47 48 48 50 53 55 55 56 55 51 46 45 45 46 46 45 45 47 50 50 50 49 49 49 48 46 45 43 43 43 44
51 50 49 48 48 50 50 49 48 47 46 46 44 41 39 40 43 46 47 47 47 46 47 47 47 48 49 48 45 43 40 38 39 41 42 44 47 49 50 52 56 57 54 52 49 49 47 43 40 40 41 44 46 46 45 44 43 42 41 40 41 42 44
49 48 47 46 47 49 49 47 44 43 43 41 37 35 35 38 42 46 48 49 47 44 42 42 43 44 44 44 44 42 37 34 34 35 38 40 42 42 43 45 49 55 57 55 53 53 49 44 40 37 34 36 39 40 40 40 40 40 40 40 42 44 45
47 46 45 46 46 47 46 44 41 39 38 35 33 32 35 40 44 47 48 48 47 43 40 38 38 39 40 40 40 39 34 32 32 32 33 35 36 36 37 39 42 48 52 51 49 49 47 43 39 36 33 31 32 35 37 39 40 41 40 41 42 44 45
46 44 44 45 45 44 43 42 39 35 32 31 31 33 36 40 43 46 47 47 46 42 38 36 34 35 36 36 34 31 27 26 28 30 31 31 31 31 32 33 36 42 46 46 42 40 41 40 36 34 34 32 30 32 35 38 40 39 38 40 42 43 43
45 45 44 43 42 40 40 38 35 30 27 28 30 32 34 38 42 45 46 45 44 41 37 34 32 31 31 31 28 24 19 20 24 27 28 30 30 31 31 29 30 34 38 40 40 38 40 41 36 33 33 32 31 32 33 35 36 36 37 39 41 41 41
45 45 43 41 39 37 34 32 30 25 23 26 30 31 33 37 41 43 43 43 42 39 36 32 28 27 26 25 23 21 18 18 22 24 26 28 29 31 30 28 28 30 32 35 39 41 42 43 40 36 35 33 32 33 33 33 33 35 37 38 39 39 39
44 43 41 38 36 33 27 23 23 22 22 26 30 30 31 35 37 38 40 41 40 37 35 31 25 22 21 19 18 18 18 19 20 20 23 27 28 27 26 25 26 27 28 32 38 42 44 44 42 40 38 36 34 33 32 32 33 35 37 38 38 38 38
42 41 39 36 33 27 20 16 18 20 22 26 28 28 30 32 32 31 34 37 37 34 32 29 23 18 15 14 14 14 16 17 16 18 22 26 24 21 21 23 23 23 25 29 35 41 46 46 44 43 42 39 36 32 32 33 34 35 36 37 37 37 36
41 39 38 35 28 19 14 14 16 18 22 25 26 28 30 29 27 26 27 29 31 30 27 23 17 11 6 7 9 9 11 13 14 18 22 23 21 19 20 22 22 22 24 26 31 38 45 48 48 46 44 41 36 34 34 34 34 34 34 35 36 36 34
39 38 36 33 26 15 11 14 17 16 19 24 26 27 30 30 27 26 26 26 25 23 19 14 9 4 1 3 5 6 9 13 16 18 19 20 20 21 22 23 23 21 21 22 26 33 40 46 49 48 45 41 37 35 35 35 34 33 32 33 34 34 33
37 36 35 32 26 15 11 14 18 19 21 25 25 26 30 31 28 26 27 27 24 18 11 5 2 2 3 5 8 10 14 17 19 19 18 19 21 22 23 24 22 20 20 21 23 28 34 39 43 43 42 40 38 37 37 36 34 31 30 30 32 32 33
37 36 35 31 24 16 13 15 20 24 26 26 25 26 30 31 28 26 28 28 22 12 4 3 3 1 3 7 10 14 16 18 20 20 19 19 20 22 23 23 21 19 19 20 22 26 30 33 36 38 39 39 40 40 40 37 33 30 28 29 31 33 34
37 37 35 30 23 17 15 16 22 28 30 31 31 30 30 30 28 26 28 27 19 8 6 7 6 2 3 8 13 15 16 17 20 21 18 18 20 21 22 21 20 18 17 17 19 23 26 30 33 35 36 38 40 43 42 37 31 28 27 30 33 34 35
38 37 36 33 27 21 17 17 22 28 33 37 37 34 31 29 24 23 25 24 16 9 7 7 6 3 1 7 13 16 16 17 19 21 19 18 19 21 21 20 19 18 16 15 16 19 21 25 28 32 33 35 39 43 42 36 30 28 29 33 36 36 36
37 37 37 36 32 26 22 20 23 28 32 34 33 30 28 25 20 20 24 24 16 9 6 5 5 4 2 3 9 14 17 17 19 21 21 20 19 20 21 21 20 18 16 15 16 16 18 20 22 26 30 32 36 41 40 34 30 29 31 35 37 36 34
31 31 33 35 33 29 25 24 25 27 28 29 27 24 22 22 21 21 25 25 18 9 3 3 4 4 3 2 4 9 14 17 19 22 23 22 22 22 23 23 22 19 15 15 17 16 16 17 19 22 25 28 33 37 36 32 30 31 33 35 35 34 32
27 26 28 30 31 29 25 23 23 23 24 25 26 22 19 21 22 23 25 25 18 9 1 0 0 1 2 2 3 6 10 15 20 23 24 25 25 25 25 24 23 18 14 15 17 17 17 18 19 21 23 26 29 32 32 31 31 33 33 32 32 31 29
24 24 24 25 27 27 24 21 19 20 21 22 24 23 21 21 21 22 24 22 15 7 2 1 2 3 4 4 5 6 8 12 17 21 23 24 25 24 24 23 22 19 16 16 18 18 18 19 20 21 23 24 26 29 30 31 32 31 29 29 29 28 27
22 22 22 23 23 24 22 20 19 20 20 19 20 21 22 21 20 20 22 19 11 5 3 2 1 2 3 4 4 5 5 8 13 16 19 20 20 20 21 21 21 20 17 17 18 19 18 19 19 20 21 23 24 25 28 31 32 29 26 26 28 27 28
23 21 21 21 22 21 20 18 18 19 19 17 17 17 19 20 19 17 18 17 11 7 6 5 5 4 3 2 2 2 0 3 7 11 13 14 15 16 18 20 21 19 17 17 18 18 18 17 17 17 19 20 22 23 26 29 30 28 27 27 28 29 30
25 23 21 20 21 21 21 18 16 18 18 16 16 15 15 16 14 12 14 16 14 12 11 10 9 8 7 7 6 5 3 2 2 5 7 9 11 12 14 17 19 18 17 17 18 18 18 17 16 17 18 19 20 22 25 27 28 27 27 27 28 30 30
26 24 21 19 18 19 19 19 18 17 16 15 16 14 12 13 13 11 11 14 15 14 14 14 12 11 10 9 8 7 4 3 4 4 5 6 7 9 11 14 16 17 18 19 19 20 19 18 17 18 19 19 21 23 24 25 26 27 28 28 29 29 28
Wind_Direction
296 296 295 294 293 292 292 291 290 289 288 287 286 285 285 284 283 282 281 280 279 278 277 276 276 275 275 274 273 273 271 270 269 269 268 268 268 267 267 266 266 267 267 266 266 265 263 263 263 263 261 259 255 254 254 254 255 255 255 255 254 254 255
297 296 295 294 294 293 292 292 291 290 289 288 287 286 286 285 284 283 282 281 280 279 278 276 275 275 274 274 273 272 272 271 270 269 268 267 267 267 266 266 265 266 267 266 265 265 262 261 262 262 261 260 256 252 252 252 252 253 254 254 254 253 253
298 297 296 296 295 294 293 293 292 291 290 290 289 288 287 286 285 284 283 282 281 279 279 277 276 274 274 273 272 271 270 270 270 270 269 268 267 266 266 266 265 265 266 265 264 264 261 259 260 260 260 260 257 252 250 249 249 250 251 252 253 253 252
298 298 297 297 296 295 295 294 293 292 292 291 290 289 288 287 286 285 284 283 281 280 279 278 276 275 274 272 271 270 269 268 268 268 268 268 267 266 265 265 264 264 265 265 264 262 260 258 259 260 259 259 257 253 249 248 247 247 248 249 251 252 252
299 298 298 298 297 297 296 295 295 294 293 292 291 290 289 288 287 286 284 283 282 281 279 278 277 275 274 272 270 269 267 266 266 266 266 267 266 266 265 264 263 262 263 263 263 261 259 257 258 259 258 257 257 254 250 248 246 246 246 247 248 250 252
300 300 299 299 298 298 297 297 296 295 295 294 293 292 291 289 288 287 286 284 283 282 280 279 277 276 274 272 270 268 267 265 265 264 264 264 265 265 265 263 262 261 261 261 261 260 257 255 256 257 256 256 256 254 252 249 246 245 245 245 246 247 249
301 300 300 299 299 298 298 297 297 296 295 295 294 293 292 291 290 289 287 286 284 283 281 280 278 277 275 273 271 269 267 265 264 263 262 262 263 264 264 263 262 261 260 260 260 258 256 254 254 255 255 254 255 254 252 249 246 243 243 243 244 245 247
301 301 300 300 299 299 298 298 297 297 296 295 294 293 292 291 290 288 287 285 283 282 281 279 278 277 276 274 272 270 268 266 263 261 260 259 259 259 261 261 260 259 258 258 259 258 255 253 253 252 252 253 253 252 251 249 247 245 243 243 244 245 245
302 301 301 300 300 299 299 298 298 298 297 296 296 295 293 292 290 289 287 285 284 282 280 279 277 276 274 272 270 268 267 265 263 260 259 257 256 255 255 257 257 256 256 256 256 256 255 254 252 250 250 251 250 251 251 250 249 247 245 244 244 244 244
302 302 301 301 300 299 299 299 299 299 298 298 297 297 296 294 293 292 290 289 287 286 284 282 279 276 274 271 269 266 264 262 260 259 257 256 254 251 250 251 253 253 253 253 253 254 255 255 253 249 248 250 250 250 251 249 248 247 246 245 244 242 242
303 303 302 301 301 301 300 300 301 300 299 299 299 298 297 296 294 293 291 290 289 287 285 284 281 279 276 272 269 266 264 261 258 256 255 254 252 249 247 247 250 252 252 251 251 252 253 255 253 249 247 248 249 249 249 248 247 247 246 246 245 242 241
304 303 303 303 303 302 302 302 303 302 302 302 301 299 298 297 295 293 292 290 289 287 286 284 282 280 277 274 271 267 263 260 257 255 253 252 250 248 244 242 245 249 251 251 251 250 251 253 252 248 247 247 247 248 249 247 247 246 246 246 245 242 240
305 305 305 305 304 304 304 304 304 305 305 303 301 300 300 298 296 295 295 294 292 290 288 285 283 280 277 274 271 266 262 258 255 253 251 249 248 245 242 238 236 240 247 251 252 251 250 251 249 247 247 246 246 247 248 247 246 246 246 246 244 241 240
306 306 306 307 306 305 305 306 307 307 306 304 303 302 302 300 300 299 299 299 298 295 292 288 284 280 277 273 269 265 260 257 253 251 250 248 246 244 241 236 231 230 234 241 247 251 250 249 248 248 247 245 245 246 246 246 246 246 245 245 243 240 238
307 307 308 308 308 307 307 309 310 309 307 306 306 304 303 302 302 302 303 303 302 299 296 291 285 280 276 272 268 265 260 257 254 251 248 247 246 245 243 238 232 228 227 230 236 242 246 246 245 247 247 245 244 244 244 245 245 244 243 242 239 237 235
310 310 311 310 310 310 311 312 312 311 309 308 307 306 303 301 300 301 302 303 303 301 297 293 287 280 276 272 269 266 262 258 255 251 247 245 246 246 244 241 236 231 228 228 230 234 239 241 241 243 247 246 243 242 241 241 240 238 236 235 234 233 233
312 313 313 312 313 314 314 314 314 313 310 309 309 307 302 298 298 299 300 301 302 301 298 294 286 279 275 271 269 267 264 259 254 250 245 244 246 247 246 242 236 231 229 230 233 236 238 238 237 238 241 242 241 240 238 236 236 235 233 232 232 231 231
315 315 315 316 316 317 316 316 315 314 313 312 311 306 301 298 299 299 299 300 301 302 300 294 285 276 271 269 269 268 266 261 256 250 243 241 244 245 244 241 236 232 229 228 229 232 233 233 234 236 238 237 234 235 237 235 234 234 232 231 231 231 231
317 316 317 319 319 319 318 315 315 317 316 313 313 311 305 300 298 297 298 299 302 304 302 294 284 273 267 267 269 270 269 265 260 250 240 238 240 241 241 240 236 232 228 225 221 219 220 223 224 226 231 232 230 231 235 235 232 231 230 230 231 231 231
318 318 320 321 320 320 318 315 317 319 315 317 324 321 309 298 295 295 297 298 301 303 301 295 284 270 263 262 262 261 257 256 256 250 241 238 238 239 240 240 236 230 225 222 217 213 213 217 218 217 221 225 226 227 230 230 228 227 227 228 230 230 229
319 320 321 322 322 321 318 314 315 315 319 329 333 325 311 302 297 296 296 298 301 301 299 295 287 273 264 261 259 252 245 243 244 242 240 241 241 241 240 239 235 230 225 222 219 214 213 214 215 216 217 219 221 223 226 227 224 224 225 226 226 226 225
321 322 322 322 324 321 314 309 311 318 332 341 337 328 321 315 307 302 299 298 298 299 297 294 289 281 269 260 257 248 237 233 230 228 234 238 240 239 237 234 235 233 229 226 221 217 214 213 213 215 216 217 219 221 224 225 223 222 223 224 223 223 222
323 323 321 322 326 320 301 303 316 331 344 346 338 333 333 331 324 319 312 305 302 303 305 301 296 292 269 244 247 240 227 226 227 227 230 230 229 229 229 230 233 232 229 227 222 218 215 214 214 216 217 219 222 222 223 225 225 223 222 221 220 218 217
325 324 321 325 330 318 292 310 330 342 347 344 339 338 341 342 339 335 332 325 316 311 312 311 306 298 229 235 253 242 228 229 231 228 224 218 215 217 221 226 228 226 225 224 221 218 216 215 216 219 221 224 226 226 226 228 228 225 221 218 216 215 213
327 325 324 329 331 319 299 320 341 352 349 341 337 342 348 348 344 342 343 339 328 317 312 312 289 247 246 252 248 235 227 225 220 214 209 208 209 213 218 224 226 225 225 225 222 219 217 217 218 221 223 224 225 226 228 230 229 226 220 213 210 209 210
330 327 327 331 332 324 316 332 351 357 351 341 339 347 352 349 346 348 351 347 339 332 347 67 91 145 228 229 228 226 223 217 210 204 200 202 206 212 220 226 227 228 230 230 227 222 219 219 220 221 223 224 223 224 228 230 228 226 219 209 205 206 209
332 329 329 335 337 331 330 346 359 359 353 348 348 350 350 347 345 349 353 353 353 8 57 73 72 74 208 215 221 223 219 212 205 200 198 200 205 213 221 226 228 232 233 233 232 228 223 222 222 223 224 223 219 220 226 228 227 224 215 205 202 205 208
334 331 332 337 340 336 335 348 360 358 353 351 351 348 345 344 343 344 350 356 6 30 57 67 70 68 202 217 218 219 217 211 204 199 197 199 204 213 220 224 229 232 230 228 231 229 223 221 220 219 220 218 213 215 221 224 223 219 210 202 202 204 207
335 333 332 334 337 337 333 340 353 352 346 346 349 348 346 346 342 339 345 352 2 20 44 57 58 48 11 235 219 217 217 213 207 205 205 203 205 212 219 224 229 230 224 220 223 222 218 217 215 214 215 212 209 211 217 219 217 212 206 202 203 204 206
334 332 330 328 330 331 328 330 338 337 333 338 347 350 348 346 343 339 340 342 346 355 25 40 27 18 1 310 227 216 215 213 210 211 213 214 214 217 221 226 231 231 224 216 216 214 211 209 208 210 211 210 207 209 212 213 211 207 204 203 202 203 203
332 329 327 323 321 323 322 320 323 322 323 334 345 348 345 344 344 342 339 337 336 335 328 167 259 273 281 275 242 224 217 214 213 213 215 218 220 222 225 229 233 233 225 214 211 209 205 203 202 203 206 207 206 207 206 206 206 206 204 202 200 200 201
333 327 327 323 319 318 317 313 311 312 316 330 341 345 344 343 344 344 342 340 340 337 306 225 211 228 237 246 254 253 235 221 216 213 213 216 219 222 225 229 230 228 220 211 208 206 204 201 199 200 202 205 207 207 205 204 205 203 200 198 196 195 196
340 330 328 327 323 320 316 309 304 304 309 322 337 345 346 347 351 355 351 348 354 10 5 347 327 294 276 268 273 274 253 230 219 213 210 212 214 217 219 221 222 220 213 207 206 205 203 201 199 200 201 204 206 206 203 203 202 198 192 191 190 189 192
350 343 335 331 327 326 321 311 300 296 299 312 328 341 347 349 352 360 0 359 7 27 32 30 30 21 14 12 6 6 98 207 209 206 204 204 205 208 210 210 210 207 203 201 201 200 196 192 190 191 193 195 197 198 196 196 196 193 188 187 186 187 193
352 351 345 337 332 331 329 321 307 293 291 302 317 330 340 342 340 351 9 15 23 37 45 47 50 50 48 41 31 28 42 79 139 176 187 188 191 201 206 202 195 190 189 191 190 186 180 176 176 180 182 182 184 186 186 187 188 187 186 186 187 190 195
349 351 350 345 339 334 329 323 314 300 291 295 303 312 327 337 337 344 5 16 25 38 48 53 58 61 55 45 34 28 29 48 79 109 138 153 162 176 183 181 177 174 177 180 177 171 167 166 169 173 175 175 179 182 182 181 183 184 185 186 188 191 194